SCP
0 0 0 0 0 0 0 0 0 0 0 0 0 0 0 0 0 0 0 0 0 0 0 0 0 -0 -0 -0 0 -0 -0 0 0 0 0 0 0 0 0 0 0 0 0
0 0 0 0 0 0 0 0 0 0 0 0 0 0 0 0 0 0 0 0 0 0 0 0 0 0 -0 -0 0 -0 -0 -0 0 0 0 0 0 0 0 0 0 0 0
0 0 0 0 0 0 0 0 0 0 0 0 0 0 0 0 0 0 0 0 0 0 0 0 0 0 0 -0 0 0 -0 -0 -0 0 0 0 0 0 0 0 0 0 0
0 0 0 0 0 0 0 0 0 0 0 0 0 0 0 0 0 0 0 0 0 0 0 0 0 0 0 0 0 0 0 -0 -0 0 0 0 0 0 0 0 0 0 0
0 0 0 0 0 0 0 0 0 0 0 0 0 0 0 0 0 0 0 0 0 0 0 0 0 0 0 0 0 0 0 0 -0 -0 0 0 0 0 0 0 0 0 0
0 0 0 0 0 0 0 0 0 0 0 0 0 0 0 0 0 0 0 0 0 0 0 0 0 0 0 0 0 0 0 0 0 -0 0 0 0 0 0 0 0 0 0
0 0 0 0 0 0 0 0 0 0 0 0 0 0 0 0 0 0 0 0 0 0 0 0 0 0 0 0 0 0 0 0 0 0 -0 0 0 0 0 0 0 0 0
0 0 0 0 0 0 0 0 0 0 0 0 0 0 0 0 0 0 0 0 0 0 0 0 0 0 0 0 0 0 0 0 0 0 -0 0 0 0 0 0 0 0 0
0 0 0 0 0 0 0 0 0 0 0 0 0 0 0 0 0 0 0 0 0 0 0 0 0 0 0 0 0 0 0 0 0 0 0 0 0 0 0 0 0 0 0
0 0 0 0 0 -0 -0 0 0 0 0 0 0 0 0 0 0 0 0 0 0 0 0 0 0 0 0 0 0 0 0 0 0 0 0 0 0 0 0 0 0 0 0
0 0 0 0 0 0 -0 -0 -0 -0 0 0 0 0 0 0 0 0 0 0 0 0 0 0 0 0 0 0 0 0 0 0 0 0 0 0 0 0 0 0 0 0 0
0 0 0 0 0 0 0 0 0 0 0 0 0 0 0 0 0 0 0 0 0 0 0 0 0 0 0 0 0 0 0 0 0 0 0 0 0 0 0 -0 -0 -0 0
0 0 0 0 0 0 0 0 0 0 0 0 0 0 0 0 0 0 0 0 0 0 0 0 0 0 0 0 0 0 0 0 0 0 0 0 0 0 -0 -0 -0 -0 -0
0 0 0 0 0 0 0 0 0 0 0 0 0 0 0 0 0 0 0 0 0 0 0 0 0 0 0 0 0 0 0 0 0 0 0 0 0 -0 -0 -0 -0 -0 -0
0 0 0 0 0 0 0 0 0 0 0 0 0 0 0 0 0 0 0 0 0 0 0 0 0 0 0 0 0 0 0 0 0 0 0 0 0 0 -0 -0 -0 -0 -0
-0 0 0 0 0 0 0 0 0 0 0 0 0 0 0 0 0 0 0 0 0 0 0 0 0 0 0 0 0 0 0 0 0 0 0 0 0 0 0 -0 -0 -0 -0
0 0 0 0 0 0 0 0 0 0 0 0 0 0 0 0 0 0 0 0 0 0 0 0 0 0 0 0 0 0 0 0 0 0 0 0 0 0 0 0 -0 -0 0
0 0 0 -0 -0 -0 0 0 0 0 0 0 0 0 0 0 0 0 0 0 0 0 0 0 0 0 0 0 0 0 0 0 0 0 0 0 0 0 0 0 0 -0 -0
0 0 0 0 0 0 0 0 0 0 0 0 0 0 0 0 0 0 0 0 0 0 0 0 0 0 0 0 0 0 0 0 0 0 0 0 0 0 0 0 0 0 -0
0 0 0 0 0 0 0 0 0 0 0 0 0 0 0 0 0 0 0 0 0 0 0 0 0 0 0 0 0 0 0 0 0 0 0 0 0 0 0 0 0 0 0
0 0 0 0 0 0 0 0 0 0 0 0 0 0 0 0 0 0 0 0 0 0 0 0 0 0 0 0 0 0 0 0 0 0 0 0 0 0 0 0 0 0 0
0 0 0 0 0 0 0 0 0 0 0 0 0 0 0 0 0 0 0 0 0 0 0 0 0 0 0 0 0 0 0 0 0 0 0 0 0 0 0 0 0 0 0
0 0 0 0 0 0 0 0 0 0 0 0 0 0 0 0 0 0 0 0 0 0 0 0 0 0 0 0 0 0 0 0 0 0 0 0 0 0 0 0 0 0 0
0 0 0 0 0 0 0 0 0 0 0 0 0 0 0 0 0 0 0 0 0 0 0 0 0 0 0 0 0 0 0 0 0 0 0 0 0 0 0 0 0 0 0
0 0 0 0 0 0 0 0 0 0 0 0 0 0 0 0 0 0 0 0 0 0 0 0 0 0 0 0 0 0 0 0 0 0 0 0 0 0 0 0 0 0 0
0 0 0 0 0 0 0 0 0 0 0 0 0 0 0 0 0 0 0 0 0 0 0 0 0 0 0 0 0 0 0 0 0 0 0 0 0 0 0 0 0 0 0
Wind_Speed
2 2 2 2 3 2 2 3 3 3 3 3 4 3 3 4 3 3 4 4 4 5 6 6 7 5 5 4 4 4 4 5 7 6 4 3 4 5 5 5 5 5 5
2 2 2 3 3 2 3 3 3 3 3 3 3 3 4 4 3 4 4 4 5 6 6 6 6 5 6 5 5 5 5 5 6 8 5 4 5 5 5 6 5 5 4
2 2 2 3 3 3 4 4 3 3 3 3 3 4 4 4 4 4 5 5 6 6 6 6 7 6 6 5 5 6 5 5 5 6 7 4 4 4 5 5 5 4 5
2 2 2 3 3 4 4 4 3 3 3 3 4 4 4 4 5 5 5 5 5 6 6 6 7 7 7 7 6 6 5 6 6 6 6 5 4 4 3 4 5 3 4
3 3 3 4 3 3 4 4 4 3 4 3 4 4 4 4 4 5 5 6 6 6 6 6 7 8 9 8 6 6 6 6 6 6 6 5 4 3 4 3 5 5 4
2 3 4 4 4 4 4 4 4 4 4 3 4 4 5 5 7 9 7 6 6 6 6 6 6 8 10 12 12 11 10 8 7 7 6 7 6 5 4 4 4 5 5
3 3 4 4 4 4 5 4 4 4 4 4 4 4 5 6 9 10 10 6 5 5 6 6 6 6 9 7 9 12 11 13 12 9 9 8 7 6 5 6 6 6 6
3 4 4 4 4 5 4 5 5 4 4 5 5 5 5 6 8 9 9 6 5 6 6 6 7 7 7 8 7 8 8 8 10 9 8 8 7 6 7 7 7 7 5
3 4 4 4 4 5 5 5 5 5 5 5 5 5 5 6 9 10 9 4 4 6 6 7 7 7 10 11 9 8 8 8 9 11 11 10 11 11 8 5 4 5 6
4 4 4 4 4 5 5 5 5 4 5 5 5 5 5 6 9 10 10 4 5 5 5 6 8 9 10 11 8 8 8 7 6 7 8 9 8 8 10 7 6 6 5
4 4 4 4 4 4 4 4 4 4 4 4 5 5 5 6 8 10 10 4 4 5 5 4 5 9 11 11 10 7 9 8 6 6 6 6 5 5 5 6 6 6 6
4 4 4 4 4 4 4 4 4 4 4 5 5 5 4 5 7 8 10 9 8 5 5 4 5 9 10 11 9 8 10 9 4 4 5 5 5 5 5 5 6 6 7
4 4 4 5 4 4 4 4 4 3 3 4 4 5 5 5 6 10 11 11 10 6 4 7 8 9 9 7 8 9 8 5 4 4 5 5 4 4 4 3 4 5 5
3 4 4 4 4 4 4 3 3 3 3 4 4 5 5 5 5 5 5 6 8 6 5 7 9 8 6 6 6 5 4 4 4 5 5 4 3 3 4 4 4 4 4
3 3 4 4 4 4 4 4 4 4 5 5 4 4 5 5 7 10 7 5 4 4 5 3 3 3 3 3 3 3 3 3 4 5 4 4 4 4 4 3 4 4 4
3 3 3 3 3 3 4 5 7 7 9 9 9 8 6 9 11 12 12 11 10 9 5 3 3 3 4 4 4 4 4 4 4 4 4 4 4 4 4 3 3 4 4
3 4 3 3 3 4 4 4 5 7 8 9 10 11 10 11 11 11 11 10 9 8 3 3 4 4 4 4 4 4 4 4 4 4 4 4 4 4 4 3 3 3 3
3 4 4 3 3 4 4 4 4 5 6 6 8 11 12 12 11 11 10 8 5 4 3 4 4 4 4 4 4 4 4 4 3 3 4 4 4 4 3 3 3 4 4
3 3 3 3 3 4 4 4 4 5 5 6 5 7 10 11 11 10 8 3 3 4 4 4 4 4 4 4 4 4 4 4 4 3 4 4 3 4 4 4 4 5 4
3 6 5 3 3 4 4 4 4 4 5 5 5 6 6 6 5 5 4 3 3 4 4 4 4 4 4 4 4 4 4 4 4 4 4 4 4 3 4 4 4 3 3
3 4 6 4 3 4 4 4 4 4 5 5 5 7 9 5 4 5 4 4 4 4 4 5 5 5 4 4 4 4 5 4 4 4 4 4 3 3 3 3 3 3 3
3 3 3 3 4 4 4 4 4 4 5 6 6 6 10 5 4 5 5 5 4 4 4 4 5 5 5 4 4 4 5 5 4 3 3 3 3 3 3 2 2 2 2
3 3 3 4 4 5 5 4 4 4 5 5 6 5 5 5 5 5 5 5 4 4 4 4 5 5 4 4 4 4 5 5 4 3 3 3 3 3 2 2 3 3 3
3 3 4 4 3 3 4 4 4 5 5 5 5 5 5 5 5 6 5 5 5 5 4 4 4 6 7 5 4 3 4 4 3 3 4 4 3 3 2 2 2 2 2
3 3 3 3 4 4 4 4 4 5 5 5 5 5 5 5 5 5 5 5 5 5 5 5 4 5 6 6 5 4 5 6 5 3 3 3 3 3 2 2 2 2 2
3 3 3 3 3 4 4 4 4 5 5 5 5 5 5 5 5 5 5 4 4 5 5 4 5 6 6 5 5 6 6 6 5 5 2 2 3 2 2 2 2 2 2
Wind_Direction
301 302 311 305 295 288 272 271 267 275 268 259 261 259 260 262 257 250 250 251 244 243 243 238 235 230 222 220 221 227 234 235 254 269 262 273 271 273 277 256 252 249 255
315 325 323 317 312 308 299 289 283 278 271 263 261 260 262 263 257 250 253 253 245 249 245 242 242 236 227 223 222 227 233 234 244 266 272 267 263 265 268 266 261 259 253
324 325 321 314 312 308 303 303 299 281 279 275 269 263 263 263 259 253 247 249 243 245 246 240 243 233 234 229 228 231 234 240 241 256 270 268 269 272 274 277 264 254 260
319 312 308 304 301 298 301 307 301 287 282 282 276 271 266 264 261 258 253 252 251 251 252 246 240 233 235 232 234 235 234 239 242 250 261 270 271 271 266 273 276 252 258
318 309 302 304 305 307 307 308 306 304 294 286 282 281 278 268 260 258 255 254 254 257 254 248 242 239 242 240 240 235 233 237 240 245 254 262 262 261 259 266 278 274 259
309 305 311 317 318 316 313 315 315 313 305 292 287 283 281 277 279 277 272 261 257 256 258 259 255 250 249 252 253 251 243 238 239 242 248 251 255 254 259 261 270 277 271
312 316 320 322 323 320 318 321 316 314 314 300 291 285 280 280 282 281 280 276 265 260 261 264 266 262 256 246 254 258 256 252 248 245 248 248 251 248 251 259 256 262 266
314 318 321 322 317 317 320 319 316 315 312 304 299 292 290 292 293 292 289 280 267 262 258 257 260 264 258 250 245 248 251 253 250 245 244 246 248 246 240 248 257 269 273
308 309 311 311 310 314 315 313 311 310 310 306 300 298 294 298 300 296 293 278 270 268 263 259 259 258 264 263 255 251 253 255 259 253 253 255 257 259 255 252 253 261 271
295 297 300 302 301 302 303 305 305 302 301 305 306 304 298 296 302 301 296 275 273 273 269 265 266 266 268 266 255 248 252 252 251 257 256 260 257 256 254 244 240 249 265
299 302 304 304 299 295 300 302 303 306 308 307 306 306 302 301 306 308 305 286 272 274 274 271 268 277 275 271 266 251 254 258 249 249 253 251 247 241 237 235 234 235 247
304 305 306 307 305 309 308 308 307 307 308 307 310 311 307 306 311 310 309 303 297 280 276 273 274 282 279 276 270 266 270 269 254 249 251 252 249 247 241 233 235 236 240
308 307 307 311 309 309 305 306 309 306 303 306 308 308 310 311 309 312 312 310 303 291 280 286 290 290 289 283 281 278 275 262 253 251 252 254 253 249 246 244 241 244 249
305 307 310 313 314 312 304 297 297 297 299 300 298 299 303 307 308 308 306 307 303 293 290 287 289 290 286 286 288 283 266 257 257 255 256 255 252 248 245 242 244 244 253
303 305 311 311 308 309 305 294 294 279 286 293 293 291 300 303 309 316 314 308 305 298 304 296 293 290 282 277 275 272 267 262 258 257 260 258 251 252 255 247 242 242 248
303 307 305 305 303 304 307 310 307 303 308 308 308 308 299 303 311 315 318 317 318 318 313 296 290 285 281 278 274 272 268 263 261 261 258 256 251 250 256 253 246 240 241
282 291 294 297 299 300 303 306 311 316 314 312 313 314 312 314 314 315 318 320 320 321 311 297 292 289 285 282 276 267 264 262 261 259 257 258 253 248 248 249 246 246 246
290 290 293 287 289 291 292 292 294 301 309 312 313 314 316 316 317 318 318 320 317 318 298 294 292 290 287 284 279 277 274 270 264 262 262 258 249 248 247 247 247 246 247
293 288 285 286 287 287 289 291 292 293 294 299 306 311 316 315 314 316 319 308 297 297 296 293 292 292 291 288 283 279 276 274 269 264 262 256 248 245 245 246 247 248 248
288 294 300 294 291 291 291 290 289 291 292 294 298 302 311 313 312 314 309 295 288 289 291 291 292 290 288 288 286 283 279 277 275 267 264 256 245 241 245 245 243 241 243
287 292 299 299 289 286 286 286 285 286 289 291 291 297 306 300 297 299 299 295 288 285 286 286 286 289 285 281 279 279 278 276 272 270 268 261 250 245 243 243 243 242 236
278 281 284 285 286 286 288 287 287 286 288 291 295 300 308 304 296 294 291 290 286 282 280 279 280 279 280 279 275 272 271 271 269 266 266 268 261 250 240 233 236 242 241
279 285 289 289 288 295 300 295 290 288 289 290 294 297 300 298 295 293 293 293 292 290 288 283 282 283 283 279 271 262 260 261 263 260 258 258 258 254 241 235 232 232 234
280 281 285 289 290 288 290 293 293 292 291 291 292 293 293 293 293 292 291 291 292 291 290 288 285 287 289 289 283 275 271 273 264 243 233 235 240 238 234 222 221 219 221
285 287 289 291 293 294 295 296 298 299 298 294 292 293 295 295 294 293 291 289 288 289 291 290 286 286 288 288 287 283 286 289 287 269 226 215 214 218 217 211 210 216 219
298 296 294 294 293 293 294 295 297 299 298 298 297 295 294 294 295 295 295 294 293 293 293 291 290 291 292 287 286 290 297 296 291 283 256 203 198 207 207 208 203 208 208